Location: Passau
(48.5721°N, 13.4363°E)
Time: 12:07:50
(UTC+01:00)

Tiangong 1 - Visible Passes

Search period start: 22 November 2017 00:00
Search period end: 02 December 2017 00:00
Orbit: 284 x 308 km, 42.8° (Epoch: 22 November)

Date Brightness Start Highest point End Pass type
(mag) Time Alt. Az. Time Alt. Az. Time Alt. Az.
27 Nov 3.0 18:00:54 10° SSW 18:02:17 14° SSE 18:02:17 14° SSE visible
28 Nov 2.8 18:06:23 10° SW 18:08:04 18° S 18:08:04 18° S visible
29 Nov 2.7 18:12:00 10° SW 18:13:43 21° S 18:13:43 21° S visible
30 Nov 2.8 18:17:37 10° SW 18:19:14 21° SSW 18:19:14 21° SSW visible
01 Dec 2.9 16:49:01 10° SW 16:51:00 19° S 16:52:58 10° ESE visible
01 Dec 3.1 18:23:13 10° WSW 18:24:39 19° SSW 18:24:39 19° SSW visible
